Погода в Вестервике

Швеция     57°45′29″N   16°37′23″E
темп.,
°C
ветер,
м/с
пор.,
м/с
влажн.,
%
обл.,
%
осадки,
мм/ч
давл.,
гПа
погр.,
м
14 мая, пт
пт1423:00+8св2393100 0.0 100576
02:00+9юв2392100 0.0 100574
05:00+7ююв1194100 0.0 100510
08:00+13всв1266100 0.0 1005344
11:00+14всв4457100 0.0 1005882
14:00+10с2489100 0.9 1005185
17:00+12св367597 0.1 1005635
20:00+9св23888 0.1 1004160
15 мая, сб
сб1523:00+6ссв129999 0.0 100538
02:00+6ссз119852 0.0 100417
05:00+5з1198100 0.0 100410
08:00+10ю247898 0.0 1004402
11:00+14ю3663100 0.1 10041560
14:00+12ю367891 0.4 1004699
17:00+12ююз3579100 0.1 1004717
20:00+12ююз11771 0.1 100512
16 мая, вс
вс1623:00+7ю259576 0.0 100681
02:00+6ю269395 0.0 1007119
05:00+6ю238799 0.0 100756
08:00+11юв4869100 0.1 1007411
11:00+12юв5879100 0.1 1007538
14:00+11юв488499 0.4 1006364
17:00+13юв4763100 0.1 1004700
20:00+9всв2597100 0.8 1003171
17 мая, пн
пн1723:00+8вюв0199100 0.8 100299
02:00+8ююз269995 0.8 1002183
05:00+6юз269814 0.0 1003116
08:00+11ююз24800 0.0 1004343
11:00+16юв455344 0.1 10031395
14:00+15юв576022 0.6 10031131
17:00+15ююв566197 0.4 10021166
20:00+13ю3776100 0.6 1003535
18 мая, вт
вт1823:00+8ююз269698 0.0 1003126
02:00+7юз23961 0.0 100452
05:00+6юз229657 0.0 100437
08:00+12ю237298 0.0 1004344
11:00+16ююв34485 0.0 10041477
14:00+16ю455837 0.6 10031442
17:00+15ю45725 2.1 10031067
20:00+12юз26822 2.7 1003275